Location: Czu?�w
(50.1404°N, 18.9919°E)
Time: 03:08:26
(UTC+00:00)

Cosmos 1340 - Pass Details

Date: 27 October 2020
Orbit: 501 x 504 km, 81.2° (Epoch: 24 November)

Event Time Altitude Azimuth Distance (km) Brightness Sun altitude
Rises 16:22:49 0° 352° (N) 2,618 6.3 -9.2°
Reaches altitude 10° 16:25:02 10° 359° (N) 1,729 5.3 -9.6°
Maximum altitude 16:28:40 44° 73° (ENE) 708 2.9 -10.1°
Drops below altitude 10° 16:32:18 10° 147° (SSE) 1,716 5.1 -10.7°
Sets 16:34:29 0° 154° (SSE) 2,596 6.1 -11.1°
